Regional Weather Roundup
Issued by NWS

Home | Current Version | Previous Version | Text Only | Print | Product List | Glossary Off
Versions: 1 2 3 4 5 6 7 8 9 10 11 12 13 14 15 16 17 18 19 20 21 22 23 24 25 26 27 28 29 30 31 32 33 34 35 36 37 38 39 40 41 42 43 44 45 46 47 48 49 50

000
ASUS45 KBOU 051907
RWRCO

WEATHER ROUNDUP FOR COLORADO
NATIONAL WEATHER SERVICE DENVER/BOULDER CO
1200 PM MST MON DEC 05 2016

NOTE: "FAIR" INDICATES FEW OR NO CLOUDS BELOW 12000 FEET WITH NO
SIGNIFICANT WEATHER AND/OR OBSTRUCTIONS TO VISIBILITY.

COZ001>005-013-030-031-052000-
...NORTHWEST COLORADO...

CITY           SKY/WX    TMP DP  RH WIND       PRES   REMARKS
CRAIG          CLOUDY    28   8  43 NW15      29.86R WCI  16
HAYDEN         CLOUDY    21   9  58 W17G28    29.84S WCI   7
MEEKER         CLOUDY    34  16  47 W12G24    29.82S WCI  25
MOUNT WERNER   NOT AVBL
STEAMBOAT SPGS CLOUDY    21  13  71 SW7       29.83R WCI  13
WALDEN           N/A     19  12  73 W15       29.75S WCI   5
$$

COZ006>008-011-052000-
...WEST CENTRAL VALLEYS...

CITY           SKY/WX    TMP DP  RH WIND       PRES   REMARKS
GRAND JUNCTION FAIR      42  22  44 W7        29.84F
MONTROSE       FAIR      40  17  39 N12       29.85F
EAGLE          MOSUNNY   39  14  35 W23G31    29.77F
RIFLE          FAIR      41  19  41 W13G20    29.80F
DELTA          NOT AVBL
NUCLA          FAIR      45  16  31 NW5       29.88F
$$

COZ017>023-064>068-052000-
...SOUTHWEST COLORADO...

CITY           SKY/WX    TMP DP  RH WIND       PRES   REMARKS
DURANGO        FAIR      40  19  43 VRB3      29.85F
CORTEZ         FAIR      47  18  31 CALM      29.88F
PAGOSA SPRINGS FAIR      38  11  33 SW7       29.86F
TELLURIDE      FAIR      36  14  41 W12G17    29.89F
WOLF CREEK PAS FAIR      19  10  68 SW13G22   29.90F WCI   7
$$

COZ009-010-012-014-032>034-037-058>063-052000-
...CENTRAL COLORADO...

CITY           SKY/WX    TMP DP  RH WIND       PRES   REMARKS
ASPEN          CLOUDY    35  16  45 N9        29.75F WCI  28
BUENA VISTA    CLOUDY    38   8  28 SW20G35   29.74F
COPPER MTN     NOT AVBL
BERTHOUD PASS  SNOW      10  -2  56 W25G44    29.63F VSB 1/4 WCI -10
COTTONWOOD PAS CLOUDY    32   9  37 W17G29    29.74F WCI  21
GUNNISON       FAIR      31  16  54 W7        29.81F WCI  24
KREMMLING      FAIR      34  18  51 N18G29    29.73S WCI  23
LEADVILLE      LGT SNOW  25  10  53 NW14G23   29.73F WCI  13
MONARCH PASS   CLOUDY    18  10  73 W43G54    29.85F WCI  -5
SALIDA         FAIR      45  13  27 SW22G30   29.82F
SUNLIGHT       CLOUDY    21  14  73 SW13G28   29.80F WCI   9
WILKERSON PASS PTSUNNY   27  19  74 SW8G21    29.75F WCI  18
$$

COZ069>075-052000-
...SAN LUIS VALLEY/SANGRE DE CRISTO MOUNTAINS...

CITY           SKY/WX    TMP DP  RH WIND       PRES   REMARKS
ALAMOSA        FAIR      35  16  45 CALM      29.76F
LA VETA PASS   FAIR      36  14  41 NE18G38   29.78F
SAGUACHE       PTSUNNY   37  14  38 SE9       29.78F
$$

COZ035-036-038>040-052000-
...NORTHERN COLORADO FRONT RANGE...

CITY           SKY/WX    TMP DP  RH WIND       PRES   REMARKS
DENVER INTL AP FAIR      53  13  20 W31G41    29.61F
DMNS CITY PARK   N/A     53   7  15 W23G30    29.62F
AURORA         MOSUNNY   52  15  23 W17       29.63F
FRONT RANGE AP NOT AVBL
ERIE MUNI ARPT FAIR      52  18  26 W20G28    29.63S
BOULDER MUN AP PTSUNNY   48  21  34 W21       29.63F
CENTENNIAL     FAIR      50  20  30 W16G23    29.63F
BROOMFIELD     NOT AVBL
FORT COLLINS   FAIR      50  18  27 W20G26    29.62F
LONGMONT       FAIR      51  20  30 W12       29.65F
$$

COZ041-046-047-076>085-087-088-052000-
...PIKES PEAK/PALMER DIVIDE AND SOUTHERN FOOTHILLS...

CITY           SKY/WX    TMP DP  RH WIND       PRES   REMARKS
COLO. SPRINGS  FAIR      55   5  13 W25G37    29.62F
A. F. ACADEMY  FAIR      51   7  17 W26G37    29.63F
SCHRIEVER AFB  NOT AVBL
ELLICOTT       FAIR     N/A N/A N/A NW24G30   29.61F
FALCON         FAIR      50   4  15 W31G44    29.65S
FORT CARSON    FAIR      57  10  15 W21G31    29.59F
LIMON          FAIR      57  18  21 NW15G26   29.60F
MONUMENT HILL  FAIR      45  18  33 W21G31    29.67S
TRINIDAD       FAIR      60  12  15 E10       29.61F
$$

COZ042>045-048>051-090-091-052000-
...NORTHEAST COLORADO...

CITY           SKY/WX    TMP DP  RH WIND       PRES   REMARKS
GREELEY ARPT   FAIR      49  18  29 NW24      29.62F
AKRON          PTSUNNY   54  19  25 NW16G22   29.59F
BURLINGTON     FAIR      59  16  18 E14       29.56F
WRAY           CLOUDY    54  19  26 NW5       29.57
STERLING       CLOUDY    48  27  43 NW25G33   29.61R
HOLYOKE        FAIR      55  23  28 NW21G29   29.59S
FORT MORGAN    FAIR      49  13  24 NW29G38   29.63R
$$

COZ086-089-092>099-052000-
...SOUTHEAST COLORADO...

CITY           SKY/WX    TMP DP  RH WIND       PRES   REMARKS
PUEBLO         FAIR      61  16  17 NW37G44   29.58F
LA JUNTA       FAIR      63  21  20 W12       29.57F
LAMAR          FAIR      62  20  19 W15       29.53F
SPRINGFIELD      N/A     67  16  14 W7        29.55F
$$



USA.gov is the U.S. government's official web portal to all federal, state and local government web resources and services.